Theta_e
341 340 340 336 337 338 338 335 331 331 330 331 327 327 326 327 327 328 327 336 338 339 342 343 345 345 344 343 342 341 339 339 340 339 341 341 341 341 342 343 343 343 345
341 340 340 339 340 337 335 333 334 332 332 329 330 326 327 328 328 327 327 329 340 339 338 339 342 343 344 342 340 340 339 337 337 337 338 339 339 340 340 340 340 340 342
341 342 336 338 339 339 331 332 330 329 330 332 331 330 328 330 329 329 327 326 333 340 339 339 337 340 340 340 339 338 337 336 336 336 336 336 335 337 337 337 337 337 339
346 342 341 340 339 339 331 335 330 329 332 332 332 329 330 329 327 329 328 327 327 329 336 339 337 336 338 339 337 336 336 336 335 335 335 333 333 333 334 333 333 332 336
347 343 340 341 339 336 335 335 331 329 327 330 330 332 332 330 328 331 328 327 325 326 327 338 340 339 338 337 337 337 335 336 335 334 334 333 332 331 331 331 333 332 331
348 346 342 341 344 333 333 335 332 333 332 331 332 333 331 329 328 327 329 330 329 329 327 327 332 334 340 338 337 336 337 336 335 334 333 332 330 330 330 330 330 330 331
347 346 342 336 341 334 336 339 334 331 330 332 329 326 329 331 330 331 330 329 329 329 330 328 329 328 333 340 339 339 338 338 336 334 334 334 331 331 330 331 330 329 329
346 344 342 337 341 338 336 335 334 331 333 335 329 325 320 324 330 331 331 331 330 331 330 330 329 328 328 331 332 340 339 339 338 335 335 334 333 332 332 331 331 330 330
345 345 343 339 341 341 338 336 336 334 330 331 330 325 317 317 323 328 330 331 331 331 330 331 332 331 330 329 333 336 340 340 339 338 337 336 333 332 332 331 330 330 330
345 346 347 343 342 339 339 339 339 337 334 329 330 333 330 329 321 318 327 328 330 332 334 332 334 333 331 329 334 335 337 338 340 340 340 336 334 333 333 332 331 330 330
335 334 336 344 342 342 341 340 338 337 336 332 328 327 326 326 328 322 319 323 327 327 329 331 332 330 331 332 331 334 336 337 337 337 338 339 336 335 334 333 332 330 330
340 336 340 344 342 340 338 338 339 336 334 333 331 329 326 323 323 322 318 318 319 320 320 321 323 329 329 331 337 335 334 333 333 333 334 335 336 337 337 335 334 332 332
340 341 344 342 342 341 340 337 336 335 334 331 329 327 328 325 326 324 320 317 315 314 316 318 318 324 327 329 330 334 335 332 330 329 330 332 333 334 335 336 336 334 333
341 340 341 339 339 340 339 339 334 333 333 330 328 327 325 324 323 320 318 314 310 310 312 312 318 320 322 325 330 334 328 331 329 327 327 328 329 331 332 333 333 334 333
342 341 339 331 334 335 335 335 332 329 329 328 326 324 323 322 314 312 313 316 312 305 307 313 314 319 317 317 323 320 321 328 330 327 326 326 326 327 328 329 330 330 330
338 338 335 333 335 336 334 332 329 330 326 325 319 316 317 314 313 315 314 313 314 311 304 309 311 313 316 317 320 316 318 327 326 326 327 325 324 324 325 325 327 328 329
338 336 335 336 335 332 329 327 323 322 317 314 315 315 314 314 313 312 313 312 311 311 306 309 312 311 312 314 315 315 318 317 317 323 325 325 322 321 322 323 323 324 326
336 335 336 333 329 328 326 318 316 317 315 315 316 314 315 317 313 315 314 311 311 311 311 308 308 309 310 312 311 311 315 317 316 322 323 322 321 320 319 320 320 320 320
333 332 331 330 330 324 318 317 316 315 315 317 315 314 313 313 310 311 312 311 313 312 311 309 306 307 308 308 309 309 311 315 316 324 322 321 319 319 319 318 318 317 316
329 326 324 321 320 316 320 318 318 316 316 317 317 316 315 314 312 311 312 310 311 307 305 302 302 302 303 305 310 308 309 311 313 316 318 318 319 318 317 318 318 318 314
321 321 319 320 315 312 312 311 313 313 314 313 314 315 313 316 320 314 309 307 307 306 305 301 300 300 300 301 301 304 303 305 308 309 309 311 313 313 314 317 319 319 316
319 318 318 318 310 311 307 308 311 310 310 309 308 311 313 316 313 314 314 313 310 305 303 299 299 299 300 300 302 301 301 301 300 307 306 308 309 309 312 315 316 314 314
321 319 320 315 308 305 305 305 308 308 308 308 309 309 310 312 312 312 312 312 310 311 310 303 300 300 305 302 302 301 300 300 301 306 303 303 307 307 310 315 313 311 310
318 316 315 312 306 306 304 304 307 307 306 308 308 307 306 306 302 304 303 304 304 304 304 306 303 304 307 305 304 304 302 301 302 304 304 303 305 305 307 310 309 306 305
315 315 314 312 306 305 303 302 304 305 304 301 304 305 306 305 302 302 304 303 300 301 307 308 306 304 303 303 304 301 303 301 298 300 303 303 304 304 306 308 309 309 305
313 313 312 310 307 305 302 302 301 302 297 298 299 301 306 304 301 300 296 295 295 296 299 299 300 302 304 304 307 305 306 300 303 301 306 305 302 305 300 309 307 306 302
Wind_Speed
4 4 4 4 3 4 5 4 4 4 4 1 3 6 5 8 8 4 3 12 11 10 9 8 8 8 10 10 9 8 8 9 9 8 8 8 7 8 8 8 7 6 7
3 4 4 2 3 2 4 5 4 2 3 1 1 1 4 8 6 7 5 5 12 12 11 11 9 9 9 8 7 8 8 7 7 6 7 8 8 9 9 8 7 6 5
5 4 2 1 2 2 3 3 3 1 2 3 4 3 4 6 8 7 7 5 6 11 12 12 11 10 9 8 8 6 6 5 6 7 8 8 7 7 8 9 9 8 7
7 5 3 3 3 4 3 5 3 2 1 3 3 4 4 5 6 9 7 6 5 5 9 11 11 12 12 11 10 9 9 8 8 10 11 10 10 9 8 7 7 6 7
7 5 4 4 5 3 3 4 2 2 1 2 3 4 4 5 5 5 8 8 8 6 5 13 15 13 14 15 14 13 11 11 10 10 10 10 10 10 10 9 9 9 8
7 6 5 3 4 3 2 2 3 1 2 3 2 3 3 4 3 4 6 7 8 8 8 9 8 8 16 16 16 14 14 14 14 13 12 11 11 11 11 11 11 10 11
8 7 6 6 5 5 4 5 3 3 1 1 2 3 3 5 6 4 4 5 6 7 10 8 7 6 8 18 17 17 18 18 16 15 13 11 13 13 13 13 14 14 12
9 8 8 6 6 4 4 5 5 2 1 1 2 0 3 5 2 3 3 4 6 3 5 10 10 10 8 8 12 20 20 20 19 18 16 15 15 15 15 15 14 13 14
10 8 9 6 5 5 4 5 4 5 3 2 2 4 1 1 4 3 2 3 5 3 3 2 8 3 7 8 13 17 22 20 21 20 17 17 18 18 17 16 15 15 16
6 4 3 9 7 4 6 5 4 3 4 3 1 3 3 4 2 4 2 1 2 5 5 5 4 6 7 6 12 16 18 21 21 20 20 21 22 21 20 19 18 18 17
4 5 5 2 4 4 5 6 5 5 3 3 3 1 0 1 2 3 3 4 3 2 3 4 5 4 5 5 6 7 17 21 19 18 18 20 22 22 22 21 20 20 20
3 7 7 4 4 4 4 5 6 5 4 3 2 1 2 2 3 2 1 2 3 4 3 4 4 5 1 4 6 12 11 13 17 14 18 19 20 22 23 24 23 24 24
7 6 5 2 1 2 4 4 3 4 4 2 3 2 2 2 2 2 3 3 3 3 3 4 4 3 4 3 4 8 12 10 7 11 17 19 21 22 24 25 23 26 26
3 4 4 5 4 4 4 1 1 3 5 3 4 3 1 0 1 1 2 3 2 2 2 5 3 4 3 1 5 7 4 9 10 10 13 15 17 21 22 24 26 24 28
2 1 6 6 4 3 11 4 2 3 4 3 3 3 2 2 3 3 3 2 2 2 3 5 3 4 3 3 3 1 4 6 10 12 12 13 15 17 16 22 27 28 27
4 4 1 4 5 4 5 5 4 4 4 3 3 6 3 2 3 3 2 2 0 3 1 0 2 3 4 4 6 3 5 8 10 12 14 13 13 14 15 16 20 25 26
3 4 6 8 6 4 6 5 5 6 6 5 5 6 3 2 2 2 3 2 2 2 2 3 2 4 3 3 5 5 5 6 5 11 13 15 14 13 11 13 14 17 23
10 9 10 7 5 5 5 6 7 6 7 7 6 7 5 4 4 3 1 2 0 3 0 3 3 4 5 7 6 5 5 6 6 11 15 15 15 14 13 13 14 14 13
12 11 4 3 6 5 5 6 6 6 6 6 4 4 2 2 3 2 2 2 1 1 2 1 3 2 3 3 5 3 5 7 5 10 10 10 14 14 14 14 12 13 12
6 5 5 3 8 8 7 6 7 6 5 5 3 2 3 3 3 5 4 2 2 2 2 2 3 3 3 4 2 3 8 4 7 8 9 6 8 12 13 11 12 13 13
7 4 8 8 7 9 7 7 7 7 6 6 6 6 4 3 5 4 3 2 2 1 2 3 3 3 3 3 3 3 2 4 6 4 4 5 3 2 5 9 9 16 14
8 7 7 8 8 7 11 13 7 6 6 5 5 6 6 2 4 5 5 5 5 3 3 2 3 3 4 3 2 3 3 3 4 3 3 7 3 4 5 5 11 13 14
4 5 7 8 9 6 9 10 8 5 5 5 6 5 5 2 2 1 3 5 6 7 7 4 3 5 4 4 3 3 3 3 5 8 2 7 5 4 5 4 9 11 8
4 5 7 10 8 5 7 8 8 6 6 7 6 5 4 4 6 5 4 4 5 6 7 4 4 7 5 7 5 5 4 4 4 7 4 5 4 5 3 1 3 7 6
6 7 6 8 8 5 7 10 8 7 6 7 7 3 4 5 2 1 5 6 7 8 8 10 8 11 13 15 12 2 4 2 4 4 2 3 4 4 3 4 3 5 5
6 6 7 7 7 5 7 8 7 4 6 5 7 6 3 2 4 6 3 3 6 6 6 8 8 8 8 8 12 6 2 4 5 4 2 3 2 1 4 1 2 3 1
Wind_Direction
173 162 206 221 170 246 213 228 196 219 216 340 48 82 99 130 132 137 154 151 144 146 144 142 147 150 143 142 145 142 135 134 134 128 122 119 120 125 127 126 121 122 139
161 155 192 206 218 211 159 121 166 213 256 335 208 203 115 123 153 152 158 162 167 161 166 165 164 171 165 160 165 161 157 151 144 143 143 139 138 139 137 145 149 146 142
174 199 280 209 270 162 164 116 147 221 303 306 251 217 194 165 156 165 166 171 178 179 179 180 178 182 185 183 187 181 176 174 167 161 152 148 146 150 150 150 152 141 138
171 197 204 216 253 216 184 159 175 230 257 233 241 242 229 191 176 169 170 167 181 181 184 191 194 197 198 200 204 208 210 205 207 191 177 169 164 168 170 177 190 161 176
191 188 210 209 220 191 191 173 215 182 179 313 309 251 213 193 200 188 161 171 180 189 184 193 195 203 204 208 214 214 211 207 205 200 199 197 200 196 188 191 180 176 184
196 197 214 226 196 187 173 184 166 181 171 210 277 307 281 242 202 184 176 174 185 192 190 192 190 204 207 207 213 214 208 204 206 211 215 209 201 194 188 187 185 184 186
194 185 203 185 198 193 187 165 160 181 267 223 33 310 269 234 209 190 165 184 204 205 193 191 194 191 211 208 207 212 211 210 212 216 209 206 208 208 204 197 195 191 193
194 178 192 202 193 209 189 186 160 159 236 125 187 360 341 336 358 215 183 227 222 249 200 195 199 200 198 202 208 209 213 216 213 209 204 201 210 221 206 207 210 208 202
196 186 172 177 208 168 193 195 161 157 194 23 132 132 16 282 336 314 293 265 242 264 286 200 213 225 227 198 203 213 209 213 216 210 206 204 211 216 215 216 215 216 214
168 208 196 176 187 181 171 192 179 176 146 201 260 174 204 168 199 314 307 347 256 261 266 265 213 206 198 188 200 209 218 215 215 210 206 208 214 215 216 216 215 213 215
69 299 281 269 220 192 169 171 175 192 174 168 163 169 355 243 216 222 275 303 334 247 282 281 286 233 228 203 214 215 211 214 215 217 220 213 216 219 219 217 214 218 214
319 260 254 207 191 274 249 204 189 201 172 157 162 137 149 184 258 162 211 270 254 309 315 306 303 298 341 169 168 174 191 214 210 218 226 230 221 222 223 219 212 215 214
221 227 230 221 186 291 317 264 246 185 142 151 137 177 180 187 206 190 161 231 230 275 293 293 300 249 204 177 192 160 183 193 208 207 225 217 221 229 231 223 220 215 215
187 168 323 21 6 354 298 284 177 156 131 130 151 153 154 32 68 76 195 164 317 315 322 276 293 269 316 205 203 198 194 197 198 202 213 223 227 234 229 227 224 221 222
302 31 118 130 68 292 276 148 135 159 149 156 122 135 106 32 53 36 24 31 153 312 289 297 323 6 32 35 307 207 231 214 209 217 217 217 223 230 231 226 226 226 224
207 206 237 75 69 136 135 152 157 148 126 103 109 79 58 39 28 30 45 10 68 169 224 312 295 298 316 320 299 309 268 248 224 215 219 222 227 225 217 226 232 223 221
81 114 94 109 116 150 128 120 96 95 96 78 69 85 80 88 75 352 2 27 31 121 164 288 243 296 286 281 284 271 273 269 258 247 219 220 219 230 234 229 231 237 230
55 40 56 32 103 106 105 98 91 99 94 72 59 56 37 24 359 357 353 313 306 325 348 296 289 310 305 296 256 295 278 285 250 256 247 215 217 218 225 236 235 231 224
81 97 103 137 144 158 116 112 114 96 86 96 90 75 353 337 314 301 258 268 298 9 357 292 298 298 294 306 319 336 325 307 280 272 250 226 229 216 220 225 229 237 225
43 80 74 87 75 71 64 69 80 78 61 57 59 48 332 357 306 286 262 300 82 33 353 333 304 282 280 309 344 328 340 346 345 333 326 290 240 226 224 219 222 227 217
108 103 76 52 63 57 40 47 43 45 40 14 359 5 8 336 345 92 120 112 63 350 278 266 267 260 287 324 325 299 287 306 314 271 300 305 295 242 236 237 238 237 230
67 53 53 77 66 64 56 52 49 39 19 13 348 328 306 246 135 159 170 182 213 209 263 233 248 261 276 264 276 270 295 316 321 259 13 310 296 286 269 233 217 222 221
33 62 78 91 81 73 58 49 38 27 355 342 339 329 327 0 324 108 252 286 294 298 219 214 254 259 250 253 247 274 241 240 263 279 285 282 269 268 270 273 251 226 211
50 73 75 84 87 61 53 38 29 23 7 358 347 358 18 52 42 53 26 346 324 300 291 295 255 271 254 263 226 238 246 254 269 272 207 271 263 249 251 69 110 112 97
56 54 56 103 91 61 42 34 25 20 24 354 344 356 97 113 182 51 355 344 325 315 332 332 331 290 282 280 272 193 272 221 287 275 271 227 277 275 203 158 151 86 76
68 86 74 101 125 104 49 43 41 49 23 350 341 351 340 225 246 45 333 323 318 295 309 313 311 313 307 297 287 195 243 224 252 290 233 333 279 225 318 126 118 93 44